Probability
0 0 0 0 0 0 0 0 0 0 0 0 0 0 0 0 0 0 0 0 0 0 0 0 0 0 0 0 0 0 0 0 0 0 0 0 0 0 0 0 0 0 0 0
0 0 0 0 0 0 0 0 0 0 0 0 0 0 0 0 0 0 0 0 0 0 0 0 0 0 0 0 0 0 0 0 0 0 0 0 0 0 0 0 0 0 0 0
0 0 0 0 0 0 0 0 0 0 0 0 0 0 0 0 0 0 0 0 0 0 0 0 0 0 0 0 0 0 0 0 0 0 0 0 0 0 0 0 0 0 0 0
0 0 0 0 0 0 0 0 0 0 0 0 0 0 0 0 0 0 0 0 0 0 0 0 0 0 0 0 0 0 0 0 0 0 0 0 0 0 0 0 0 0 0 0
0 0 0 0 0 0 0 0 0 0 0 0 0 0 0 0 0 0 0 0 0 0 0 0 0 0 0 0 0 0 0 0 0 0 0 0 0 0 0 0 0 0 0 0
0 0 0 0 0 0 0 0 0 0 0 0 0 0 0 0 0 0 0 0 0 0 0 0 0 0 0 0 0 0 0 0 0 0 0 0 0 0 0 0 0 0 0 0
0 0 0 0 0 0 0 0 0 0 0 0 0 0 0 0 0 0 0 0 0 0 0 0 0 0 0 0 0 0 0 0 0 0 0 0 0 0 0 0 0 0 0 0
0 0 0 0 0 0 0 0 0 0 0 0 0 0 0 0 0 0 0 0 0 0 0 0 0 0 0 0 0 0 0 0 0 0 0 0 0 0 0 0 0 0 0 0
0 0 0 0 0 0 0 0 0 0 0 0 0 0 0 0 0 0 0 0 0 0 0 0 0 0 0 0 0 0 0 0 0 0 0 0 0 0 0 0 0 0 0 0
0 0 0 0 0 0 0 0 0 0 0 0 0 0 0 0 0 0 0 0 0 0 0 0 0 0 0 0 0 0 0 0 0 0 0 0 0 0 0 0 0 0 0 0
0 0 0 0 0 0 0 0 0 0 0 0 0 0 0 0 0 0 0 0 0 0 0 0 0 0 0 0 0 0 0 0 0 0 0 0 0 0 0 0 0 0 0 0
0 0 0 0 0 0 0 0 0 0 0 0 0 0 0 0 0 0 0 0 0 0 0 0 0 0 0 0 0 0 0 0 0 0 0 0 0 0 0 0 0 0 0 0
0 0 0 0 0 0 0 0 0 0 0 0 0 0 0 0 0 0 0 0 0 0 0 0 0 0 0 0 0 0 0 0 0 0 0 0 0 0 0 0 0 0 0 0
0 0 0 0 0 0 0 0 0 0 0 0 0 0 0 0 0 0 0 0 0 0 0 0 0 0 0 0 0 0 0 0 0 0 0 0 0 0 0 0 0 0 0 0
0 0 0 0 0 0 0 0 0 0 0 0 0 0 0 0 0 0 0 0 0 0 0 0 0 0 0 0 0 0 0 0 0 0 0 0 0 0 0 0 0 0 0 0
0 0 0 0 0 0 0 0 0 0 0 0 0 0 0 0 0 0 0 0 0 0 0 0 0 0 0 0 0 0 0 0 0 0 0 0 0 0 0 0 0 0 0 0
0 0 0 0 0 0 0 0 0 0 0 0 0 0 0 0 0 0 0 0 0 0 0 0 0 0 0 0 0 0 0 0 0 0 0 0 0 0 0 0 0 0 0 0
0 0 0 0 0 0 0 0 0 0 0 0 0 0 0 0 0 0 0 0 0 0 0 0 0 0 0 0 0 0 0 0 0 0 0 0 0 0 0 0 0 0 0 0
0 0 0 0 0 0 0 0 0 0 0 0 0 0 0 0 0 0 0 0 0 0 0 0 0 0 0 0 0 0 0 0 0 0 0 0 0 0 0 0 0 0 0 0
0 0 0 0 0 0 0 0 0 0 0 0 0 0 0 0 0 0 0 0 0 0 0 0 0 0 0 0 0 0 0 0 0 0 0 0 0 0 0 0 0 0 0 0
0 0 0 0 0 0 0 0 0 0 0 0 0 0 0 0 0 0 0 0 0 0 0 0 0 0 0 0 0 0 0 0 0 0 0 0 0 0 0 0 0 0 0 0
0 0 0 0 0 0 0 0 0 0 0 0 0 0 0 0 0 0 0 0 0 0 0 0 0 0 0 0 0 0 0 0 0 0 0 0 0 0 0 0 0 0 0 0
0 0 0 0 0 0 0 0 0 0 0 0 0 0 0 0 0 0 0 0 0 0 0 0 0 0 0 0 0 0 0 0 0 0 0 0 0 0 0 0 0 0 0 0
0 0 0 0 0 0 0 0 0 0 0 0 0 0 0 0 0 0 0 0 0 0 0 0 0 0 0 0 0 0 0 0 0 0 0 0 0 0 0 0 0 0 0 0
0 0 0 0 0 0 0 0 0 0 0 0 0 0 0 0 0 0 0 0 0 0 0 0 0 0 0 0 0 0 0 0 0 0 0 0 0 0 0 0 0 0 0 0
0 0 0 0 0 0 0 0 0 0 0 0 0 0 0 0 0 0 0 0 0 0 0 0 0 0 0 0 0 0 0 0 0 0 0 0 0 0 0 0 0 0 0 0
0 0 0 0 0 0 0 0 0 0 0 0 0 0 0 0 0 0 0 0 0 0 0 0 0 0 0 0 0 0 0 0 0 0 0 0 0 0 0 0 0 0 0 0
Wind_Speed
11 10 8 10 11 11 14 14 13 14 17 18 11 10 9 9 8 8 8 7 7 6 6 6 6 5 5 5 4 4 5 7 8 8 7 8 9 9 9 10 10 10 10 10
9 9 11 15 15 15 16 15 17 18 22 15 10 9 10 10 8 9 9 8 8 7 7 7 6 6 6 5 4 4 6 7 7 6 6 7 8 8 8 9 9 9 10 10
8 5 7 14 14 15 13 12 12 18 21 11 8 10 11 10 9 9 9 8 8 8 7 7 7 6 6 6 4 4 6 6 6 6 7 7 7 8 9 9 8 9 9 9
5 3 13 10 5 10 12 14 13 13 11 10 11 10 8 7 8 9 8 8 8 7 7 7 6 6 5 4 3 3 4 5 5 6 6 6 7 8 8 7 8 8 8 9
4 7 12 9 5 6 8 11 11 13 12 11 9 6 8 7 7 8 9 8 8 7 7 6 6 5 4 4 3 3 5 5 5 6 6 6 7 8 6 7 7 7 7 8
7 8 10 7 4 4 2 8 6 7 10 9 4 5 9 6 6 8 7 7 7 6 6 6 6 4 4 4 3 4 5 5 4 5 6 7 7 6 5 5 6 6 6 6
12 11 11 7 4 4 5 8 3 3 5 5 5 8 8 7 7 7 7 7 7 6 5 5 5 4 4 4 4 5 4 3 3 4 5 5 4 4 4 4 5 5 5 5
8 11 12 4 4 6 7 3 2 3 5 5 7 8 8 7 7 7 7 7 6 5 5 4 3 3 4 5 5 4 3 2 3 3 3 3 4 4 5 5 6 5 5 4
9 10 5 4 7 6 3 4 4 5 6 6 7 8 8 8 7 7 6 6 5 5 5 4 3 2 4 5 4 3 2 2 2 2 2 3 5 5 5 5 5 5 5 5
7 9 7 7 6 6 5 6 6 6 7 6 7 9 9 8 7 6 5 5 5 4 5 5 4 3 4 4 3 2 2 2 1 1 2 2 3 4 5 6 5 5 5 5
11 10 8 9 7 7 6 6 7 7 7 6 7 9 8 7 7 6 5 4 4 4 4 5 5 5 4 3 2 2 2 2 2 1 2 2 3 3 4 5 6 6 6 6
11 7 7 8 6 5 7 8 8 7 8 6 5 7 7 6 6 5 5 4 4 4 5 5 4 5 4 3 2 2 2 2 2 2 2 2 3 1 1 2 3 4 5 4
13 9 9 9 8 6 7 8 7 6 7 7 6 5 5 6 5 5 5 4 5 5 5 5 4 5 5 3 2 2 2 2 2 2 2 3 3 3 2 2 4 5 6 6
10 8 10 10 9 7 6 7 6 6 5 5 5 5 5 5 5 5 5 5 4 4 5 5 5 6 5 4 3 3 2 2 2 2 3 3 3 3 3 4 3 2 3 6
10 9 10 7 6 6 5 5 5 6 5 5 4 4 5 5 6 6 5 4 4 4 4 4 5 6 5 4 3 2 2 2 2 1 2 2 2 3 3 3 3 3 3 4
7 7 7 7 8 7 6 5 6 7 6 6 5 4 4 5 5 5 5 4 4 5 5 4 5 6 5 3 3 2 1 2 1 1 1 2 2 3 3 3 3 3 4 4
4 6 5 5 7 7 7 6 6 7 6 6 5 5 4 4 4 4 4 4 3 4 4 4 5 5 4 3 2 1 1 1 1 1 2 2 3 3 3 4 3 3 3 4
4 5 4 5 5 6 7 6 5 5 6 5 4 4 4 4 5 5 4 4 3 4 4 4 4 4 3 3 2 1 0 0 0 1 2 2 2 3 3 3 3 3 3 4
3 3 3 4 4 4 5 5 5 5 5 4 4 4 4 4 4 4 3 3 3 4 5 4 5 4 3 3 2 0 0 1 1 1 2 3 3 3 3 3 3 3 4 4
3 3 3 4 4 4 4 5 5 4 4 3 3 4 4 4 3 3 3 3 3 3 4 4 4 3 3 2 1 0 1 1 2 2 2 2 3 3 3 3 3 3 3 3
3 4 4 4 4 4 5 5 4 4 4 3 3 4 4 3 2 2 2 3 4 3 4 5 3 2 2 1 1 1 1 2 2 2 2 2 2 2 3 3 3 3 3 3
3 4 4 4 4 5 5 4 4 4 3 3 3 2 2 2 2 2 2 3 3 4 3 2 2 2 2 2 1 1 1 2 2 2 2 2 2 2 2 3 3 3 3 3
3 3 4 4 5 5 5 4 4 3 3 3 2 2 2 2 2 2 2 2 2 4 3 2 3 3 4 2 1 1 1 2 2 2 2 2 2 2 3 3 3 3 3 3
3 4 4 4 4 4 4 4 4 3 3 3 2 2 1 1 2 1 1 3 4 4 2 2 4 4 4 2 1 1 1 1 2 2 2 2 2 2 2 3 3 3 3 3
3 3 3 4 3 3 3 3 3 2 2 2 3 2 2 1 2 2 2 2 3 4 2 3 4 4 3 1 1 1 1 1 2 2 2 2 2 2 2 3 3 3 3 3
3 3 3 3 3 3 2 2 2 2 2 2 2 2 2 1 1 1 1 2 2 3 3 2 2 2 1 1 1 1 1 1 1 1 2 2 2 2 2 3 3 2 2 2
3 3 3 3 3 2 2 2 2 2 2 2 2 2 2 2 2 2 2 2 2 2 2 2 2 1 1 1 1 1 1 1 1 1 1 2 2 2 2 3 2 2 2 2
Wind_Direction
257 265 260 257 257 248 237 235 241 251 256 266 272 278 287 295 301 306 309 311 311 309 304 304 305 300 288 275 262 231 211 212 218 216 207 199 196 195 193 194 196 194 194 196
263 256 257 264 256 249 249 246 246 255 263 263 263 265 272 278 286 291 296 301 304 302 301 300 299 298 291 277 261 231 218 221 220 209 202 200 199 192 191 195 194 190 195 196
267 268 278 260 241 234 235 230 231 245 257 273 275 266 264 270 273 273 281 287 292 293 292 292 291 287 283 277 268 236 228 226 216 206 206 205 196 191 194 194 189 193 197 196
261 258 246 250 215 217 233 244 238 244 259 266 263 266 263 260 264 273 278 281 282 283 285 286 286 287 287 287 274 247 238 233 220 207 208 201 193 197 197 190 191 197 198 198
231 245 265 270 239 207 222 252 240 246 259 269 277 287 275 267 262 265 271 275 277 278 282 290 293 294 296 298 293 264 249 239 224 207 203 196 196 198 194 188 192 196 193 192
226 239 249 250 232 197 190 266 252 238 252 264 274 269 274 284 276 276 280 282 283 288 292 294 298 301 292 293 296 279 265 249 228 208 200 200 198 194 189 186 189 185 188 191
230 243 259 252 240 145 198 253 266 233 253 262 240 243 269 286 284 281 288 289 287 286 286 289 298 301 295 303 295 292 292 275 239 214 207 201 190 181 172 170 171 179 183 188
212 232 249 233 162 194 229 264 280 261 261 267 270 277 284 285 282 288 295 299 298 295 295 304 308 303 305 301 302 307 296 276 251 222 202 183 173 172 171 171 173 175 173 177
209 228 247 208 213 230 233 255 265 269 277 279 285 291 291 287 285 287 290 296 301 296 298 305 304 280 282 296 308 304 298 283 270 235 199 185 178 175 173 175 175 176 176 182
248 255 258 262 264 264 257 256 268 275 280 282 285 290 292 292 292 294 295 295 299 299 302 306 307 298 282 297 307 306 300 292 280 225 201 189 182 181 180 181 179 179 182 183
249 258 271 264 256 260 266 269 275 280 276 276 282 287 289 292 292 292 293 297 300 296 298 303 312 310 309 305 295 289 296 304 290 252 206 197 191 196 196 200 190 184 187 180
246 241 240 258 259 264 272 275 275 277 284 283 276 281 289 290 292 295 297 305 309 305 300 303 310 309 310 303 282 274 294 295 272 247 216 199 178 145 121 158 167 174 175 175
248 254 251 262 268 264 266 275 277 271 273 280 283 281 284 287 293 297 300 307 305 301 299 302 305 303 303 301 296 277 268 269 259 244 220 196 177 167 150 92 110 139 153 158
245 251 258 258 260 267 268 273 277 275 274 274 279 285 286 288 293 297 297 298 298 301 302 305 306 304 309 309 303 290 279 265 251 234 222 198 179 170 166 163 156 138 143 148
241 235 246 262 270 274 272 274 278 278 281 282 282 284 290 292 294 296 298 299 301 304 306 310 309 307 313 312 306 294 281 264 250 230 212 186 164 155 153 155 151 141 125 137
254 252 252 255 260 266 272 270 269 275 279 281 285 287 284 282 285 292 298 302 302 303 308 310 305 307 310 307 308 301 282 267 265 216 166 151 146 148 149 147 147 150 156 152
252 258 260 266 268 273 271 268 267 272 276 276 278 284 286 286 289 293 301 306 300 300 305 304 301 307 308 303 301 294 295 257 228 161 149 148 145 149 152 149 152 155 156 158
250 257 261 265 274 278 281 282 281 280 277 278 282 282 279 277 280 286 294 301 309 315 313 303 302 311 312 306 301 294 255 241 203 142 132 133 131 133 134 133 138 141 131 135
296 289 289 283 280 278 280 282 283 281 280 278 275 274 274 273 274 281 288 294 301 307 312 315 321 324 312 306 322 359 119 142 126 110 118 129 120 123 128 132 138 141 139 136
330 323 316 311 306 296 294 295 291 287 285 283 279 277 277 278 276 278 286 289 286 286 299 313 323 316 308 307 349 73 135 149 143 131 125 126 126 125 125 128 133 136 137 139
333 330 325 320 316 315 309 304 297 292 294 288 273 268 272 283 285 281 286 296 302 305 309 318 321 312 314 334 22 90 131 140 138 136 133 129 126 126 126 128 131 133 136 134
337 331 326 322 321 319 316 312 304 299 299 297 291 280 279 288 298 300 281 268 291 315 327 323 316 322 337 2 63 90 112 128 129 127 130 133 136 135 132 132 134 133 134 138
326 324 323 322 317 311 314 318 316 310 303 299 293 276 265 267 271 277 299 299 302 322 332 317 325 344 357 19 60 75 94 112 120 127 132 134 137 140 141 140 140 140 143 144
325 326 322 319 317 316 318 322 324 323 319 319 314 300 281 291 306 290 277 310 327 333 335 332 346 1 13 28 54 70 87 104 117 126 126 125 128 132 136 139 140 142 145 145
322 319 319 321 319 310 308 319 328 332 338 339 333 330 321 299 290 311 325 327 338 346 346 1 16 15 16 34 52 68 85 108 124 129 130 131 134 137 138 142 146 146 147 151
317 312 305 302 299 300 308 313 319 323 327 331 333 334 336 341 347 344 354 357 356 354 355 357 6 9 17 46 59 61 72 88 91 106 128 134 137 139 138 140 143 148 148 150
317 313 312 319 320 313 310 308 310 313 315 314 321 334 346 353 360 7 8 4 4 5 4 3 4 10 20 39 58 65 72 84 97 110 125 132 137 140 140 142 144 142 144 150